TimeCDT,TemperatureF,Dew PointF,Humidity,Sea Level PressureIn,VisibilityMPH,Wind Direction,Wind SpeedMPH,Gust SpeedMPH,PrecipitationIn,Events,Conditions,WindDirDegrees,DateUTC
12:54 AM,60.1,48.9,67,30.08,10.0,NNW,4.6,-,N/A,,Clear,340,2013-09-13 05:54:00
1:54 AM,59.0,48.9,69,30.09,10.0,Variable,4.6,-,N/A,,Clear,0,2013-09-13 06:54:00
2:54 AM,57.9,48.9,72,30.09,10.0,North,5.8,-,N/A,,Clear,10,2013-09-13 07:54:00
3:54 AM,55.9,48.9,77,30.11,10.0,Calm,Calm,-,N/A,,Clear,0,2013-09-13 08:54:00
4:54 AM,55.0,48.9,80,30.13,10.0,North,3.5,-,N/A,,Clear,360,2013-09-13 09:54:00
5:54 AM,55.0,50.0,83,30.15,10.0,NNE,4.6,-,N/A,,Scattered Clouds,30,2013-09-13 10:54:00
6:54 AM,55.9,48.0,75,30.17,10.0,North,-9999.0,-,N/A,,Mostly Cloudy,0,2013-09-13 11:54:00
7:54 AM,57.0,46.9,69,30.17,10.0,Variable,3.5,-,N/A,,Clear,0,2013-09-13 12:54:00
8:54 AM,59.0,45.0,60,30.19,10.0,NE,12.7,-,N/A,,Clear,50,2013-09-13 13:54:00
9:54 AM,62.1,44.1,52,30.20,10.0,NNE,9.2,-,N/A,,Clear,20,2013-09-13 14:54:00
10:54 AM,64.0,42.1,45,30.19,10.0,NE,9.2,-,N/A,,Clear,50,2013-09-13 15:54:00
11:54 AM,66.0,39.0,37,30.18,10.0,North,10.4,-,N/A,,Clear,10,2013-09-13 16:54:00
12:54 PM,68.0,36.0,31,30.17,10.0,NE,12.7,17.3,N/A,,Clear,40,2013-09-13 17:54:00
1:54 PM,71.1,36.0,28,30.15,10.0,NE,8.1,-,N/A,,Clear,40,2013-09-13 18:54:00
2:54 PM,72.0,36.0,27,30.13,10.0,NE,9.2,-,N/A,,Clear,40,2013-09-13 19:54:00
3:54 PM,71.1,36.0,28,30.12,10.0,NNE,6.9,17.3,N/A,,Clear,30,2013-09-13 20:54:00
4:54 PM,72.0,37.0,28,30.12,10.0,ENE,11.5,-,N/A,,Clear,60,2013-09-13 21:54:00
5:54 PM,70.0,36.0,29,30.11,10.0,NE,8.1,-,N/A,,Clear,50,2013-09-13 22:54:00
6:54 PM,66.0,33.1,29,30.12,10.0,NNE,5.8,-,N/A,,Clear,20,2013-09-13 23:54:00
7:54 PM,60.1,39.0,46,30.12,10.0,Calm,Calm,-,N/A,,Clear,0,2013-09-14 00:54:00
8:54 PM,57.9,39.0,49,30.14,10.0,ENE,4.6,-,N/A,,Clear,60,2013-09-14 01:54:00
9:54 PM,55.9,42.1,60,30.14,10.0,Calm,Calm,-,N/A,,Clear,0,2013-09-14 02:54:00
10:54 PM,55.9,43.0,62,30.15,10.0,East,5.8,-,N/A,,Clear,90,2013-09-14 03:54:00
11:54 PM,55.9,43.0,62,30.15,10.0,East,6.9,-,N/A,,Clear,90,2013-09-14 04:54:00